This is the latest recevied weather packets stored in our database for station/object GOLDWX. If no packets are shown the sender has not sent any weather packets the latest 1 day(s).
| Time | Temp. | Humidity | Pressure | Rain* | Wind** | Luminosity | Snow |
|---|---|---|---|---|---|---|---|
| 1778038802 | 15.56° C | 31% | 1012.8 hPa | 0 mm | 0.89 m/s, 315° | - | - |
| 1778037899 | 16.11° C | 30% | 1012.5 hPa | 0 mm | 0.89 m/s, 346° | - | - |
| 1778037298 | 16.67° C | 30% | 1012.4 hPa | 0 mm | 1.34 m/s, 357° | - | - |
| 1778036997 | 16.67° C | 30% | 1012.3 hPa | 0 mm | 1.79 m/s, 345° | - | - |
| 1778036092 | 16.67° C | 29% | 1012.1 hPa | 0 mm | 1.79 m/s, 340° | - | - |
| 1778035491 | 17.22° C | 29% | 1011.9 hPa | 0 mm | 2.24 m/s, 356° | - | - |
| 1778035190 | 17.22° C | 29% | 1011.8 hPa | 0 mm | 3.13 m/s, 350° | - | - |
| 1778034289 | 18.33° C | 28% | 1011.6 hPa | 0 mm | 4.92 m/s, 349° | - | - |
| 1778033685 | 18.33° C | 28% | 1011.4 hPa | 0 mm | 3.58 m/s, 340° | - | - |
| 1778033386 | 18.89° C | 28% | 1011.4 hPa | 0 mm | 6.26 m/s, 353° | - | - |
| 1778032783 | 18.89° C | 27% | 1011.2 hPa | 0 mm | 4.47 m/s, 342° | - | - |
| 1778032482 | 18.89° C | 26% | 1011.1 hPa | 0 mm | 4.92 m/s, 351° | - | - |
| 1778031879 | 19.44° C | 26% | 1010.9 hPa | 0 mm | 7.15 m/s, 332° | - | - |
| 1778031579 | 19.44° C | 25% | 1010.8 hPa | 0 mm | 5.81 m/s, 340° | - | - |
| 1778030977 | 20° C | 22% | 1010.8 hPa | 0 mm | 4.02 m/s, 346° | - | - |
| 1778030676 | 20° C | 21% | 1010.8 hPa | 0 mm | 2.68 m/s, 319° | - | - |
| 1778030074 | 20° C | 21% | 1010.7 hPa | 0 mm | 4.92 m/s, 357° | - | - |
| 1778029774 | 20.56° C | 21% | 1010.7 hPa | 0 mm | 2.24 m/s, 323° | - | - |
| 1778029172 | 20.56° C | 20% | 1010.7 hPa | 0 mm | 2.68 m/s, 40° | - | - |
| 1778028871 | 21.11° C | 19% | 1010.6 hPa | 0 mm | 5.36 m/s, 0° | - | - |
| 1778028269 | 21.67° C | 20% | 1010.6 hPa | 0 mm | 2.24 m/s, 357° | - | - |
| 1778027969 | 21.67° C | 20% | 1010.5 hPa | 0 mm | 3.13 m/s, 346° | - | - |
| 1778027367 | 22.78° C | 20% | 1010.4 hPa | 0 mm | 3.13 m/s, 344° | - | - |
| 1778027066 | 22.78° C | 19% | 1010.4 hPa | 0 mm | 1.79 m/s, 358° | - | - |
| 1778026464 | 23.33° C | 20% | 1010.3 hPa | 0 mm | 3.58 m/s, 331° | - | - |
* Rain since midnight (hover to see other rain measurements)
** Current wind speed in m/s (hover to see current wind gust speed)